Location: Unspecified
(0.0000°N, 0.0000°E)
Time: 03:55:25
(UTC+01:00)

Amateur Radio Satellites - All Passes

Search period start: 26 October 2014 03:25
Search period end: 27 October 2014 03:25
Location: Unspecified, 0.0000°N, 0.0000°E

Satellite Date Start Highest point End Downlink Frequencies (MHz)
Time Altitude Azimuth
JAS-1B 26 Oct 03:38:20 03:44:40 26° 281° (W) 03:51:48 435.800 - 435.900 CW/SSB
Uribyol 2 26 Oct 03:40:50 03:44:57 24° 283° (WNW) 03:49:04 436.500 FM
ITAMSAT 1 26 Oct 03:47:18 03:51:15 22° 283° (WNW) 03:55:13 435.822 SSB
AO-7 26 Oct 03:49:08 03:55:23 24° 107° (ESE) 04:01:38 29.400 - 29.500 MHz
Gurwin Techsat 1B 26 Oct 04:12:53 04:17:12 26° 283° (WNW) 04:21:32 435.225 FM
PANSAT 26 Oct 04:15:04 04:17:54 19° 331° (NNW) 04:20:43 not established
TMSAT-1 26 Oct 04:23:18 04:27:45 28° 283° (WNW) 04:32:14 436.925 FM
Uosat F 26 Oct 04:51:32 04:56:27 56° 103° (ESE) 05:01:22 435.120 FM
OPAL 26 Oct 05:20:37 05:25:17 34° 76° (ENE) 05:29:55 ?
AO-7 26 Oct 05:39:57 05:47:46 46° 286° (WNW) 05:55:40 29.400 - 29.500 MHz
Saudisat 1A 26 Oct 05:45:11 05:49:19 42° 112° (ESE) 05:53:26 436.775 MHz
JAS-2 26 Oct 05:53:28 06:01:04 61° 102° (ESE) 06:08:04 435.800 - 435.900 CW/SSB, 435.910 FM
Hamsat 26 Oct 06:56:16 07:00:06 34° 281° (W) 07:04:01 145.90 MHz
OPAL 26 Oct 07:00:58 07:03:52 15° 255° (WSW) 07:06:45 ?
STRAND 1 26 Oct 07:06:44 07:11:34 43° 77° (ENE) 07:16:23 ?
RS-15 26 Oct 07:08:42 07:14:17 15° 68° (ENE) 07:19:55 29.354 - 29.394 USB, Beacon 29.352 USB
SO-67 26 Oct 07:21:41 07:24:48 32° 101° (E) 07:27:55 435.3500 MHz FM
JAS-2 26 Oct 07:41:16 07:45:30 16° 285° (WNW) 07:49:37 435.800 - 435.900 CW/SSB, 435.910 FM
STRAND 1 26 Oct 08:49:22 08:50:28 11° 257° (WSW) 08:51:33 ?
HO-68 26 Oct 08:56:52 09:03:13 35° 105° (ESE) 09:09:34 435.675 MHz FM
RS-15 26 Oct 09:14:42 09:26:22 84° 250° (WSW) 09:38:35 29.354 - 29.394 USB, Beacon 29.352 USB
ZACube-1 26 Oct 10:09:58 10:12:29 16° 102° (ESE) 10:15:00 437.345 MHz
ISS 26 Oct 10:10:25 10:13:37 49° 305° (NW) 10:16:49 145.800 FM
UKube-1 26 Oct 10:11:00 10:15:17 63° 102° (ESE) 10:19:36 145.840 MHz, 145.915 MHz
KITSAT 1 26 Oct 10:28:31 10:36:16 49° 110° (ESE) 10:43:57 435.175 FM
MaSat-1 26 Oct 10:29:45 10:32:04 65° 73° (ENE) 10:34:29 437.345 MHz
HO-68 26 Oct 10:44:55 10:50:35 26° 285° (WNW) 10:56:17 435.675 MHz FM
Oscar 11 26 Oct 10:51:38 10:55:33 35° 282° (WNW) 10:59:31 145.825 FM, Beacon 2401.500 USB
FUNcube-1 26 Oct 10:52:43 10:56:50 71° 102° (ESE) 11:00:58 145.950 - 145.970 MHz USB
RS-15 26 Oct 11:35:58 11:38:59 11° 245° (WSW) 11:42:02 29.354 - 29.394 USB, Beacon 29.352 USB
SO-50 26 Oct 11:37:40 11:42:00 61° 292° (WNW) 11:46:21 436.795 FM
ZACube-1 26 Oct 11:45:44 11:48:37 19° 282° (WNW) 11:51:31 437.345 MHz
KITSAT 1 26 Oct 12:25:45 12:31:20 21° 291° (WNW) 12:36:57 435.175 FM
UOSAT-12 26 Oct 12:53:24 12:57:47 56° 112° (ESE) 13:02:15 437.025 FM, 437.400 FM
Oscar 19 26 Oct 13:28:19 13:32:25 24° 78° (ENE) 13:36:29 437.125 CW, 437.150 USB
AO-27 26 Oct 13:51:23 13:53:55 14° 77° (ENE) 13:56:26 436.795 MHz FM
Sapphire 26 Oct 13:53:06 13:57:35 27° 71° (ENE) 14:02:04 437.095 MHz 1200 baud AX-25 AFSK
AO-Echo 26 Oct 13:57:51 14:01:26 21° 77° (ENE) 14:05:03 ?
JAS-1B 26 Oct 14:00:04 14:06:53 51° 78° (ENE) 14:12:43 435.800 - 435.900 CW/SSB
Oscar 16 26 Oct 14:13:10 14:18:23 90° 75° (ENE) 14:23:33 437.025 USB, Beacon 2401.1428
PCSat 26 Oct 14:14:40 14:19:55 54° 71° (ENE) 14:25:10 145.825 MHz
PANSAT 26 Oct 14:21:12 14:24:59 60° 30° (NNE) 14:28:47 not established
Uribyol 2 26 Oct 14:35:37 14:40:42 55° 77° (ENE) 14:45:47 436.500 FM
ITAMSAT 1 26 Oct 14:42:02 14:47:09 60° 77° (ENE) 14:52:15 435.822 SSB
Oscar 19 26 Oct 15:07:40 15:11:28 21° 257° (WSW) 15:15:17 437.125 CW, 437.150 USB
Gurwin Techsat 1B 26 Oct 15:10:54 15:16:07 59° 78° (ENE) 15:21:19 435.225 FM
TMSAT-1 26 Oct 15:21:10 15:26:19 53° 78° (ENE) 15:31:27 436.925 FM
AO-27 26 Oct 15:28:25 15:33:09 36° 257° (WSW) 15:37:52 436.795 MHz FM
AO-Echo 26 Oct 15:36:37 15:39:57 19° 258° (WSW) 15:43:19 ?
Sapphire 26 Oct 15:36:52 15:40:44 20° 250° (WSW) 15:44:36 437.095 MHz 1200 baud AX-25 AFSK
JAS-1B 26 Oct 15:53:50 15:56:50 13° 252° (WSW) 15:59:41 435.800 - 435.900 CW/SSB
PANSAT 26 Oct 16:02:20 16:05:06 19° 209° (SSW) 16:07:52 not established
AO-7 26 Oct 16:14:18 16:21:51 39° 74° (ENE) 16:29:19 29.400 - 29.500 MHz
Uosat F 26 Oct 17:21:17 17:26:13 61° 257° (WSW) 17:31:09 435.120 FM
JAS-2 26 Oct 17:27:53 17:32:12 25° 75° (ENE) 17:36:48 435.800 - 435.900 CW/SSB, 435.910 FM
Hamsat 26 Oct 17:30:23 17:31:46 11° 79° (ENE) 17:33:08 145.90 MHz
Saudisat 1A 26 Oct 17:50:57 17:55:19 68° 68° (ENE) 17:59:41 436.775 MHz
OPAL 26 Oct 17:51:55 17:56:51 82° 104° (ESE) 18:01:50 ?
AO-7 26 Oct 18:07:32 18:14:15 28° 253° (WSW) 18:20:58 29.400 - 29.500 MHz
RS-15 26 Oct 18:55:38 18:56:58 10° 116° (ESE) 18:58:17 29.354 - 29.394 USB, Beacon 29.352 USB
Hamsat 26 Oct 19:03:50 19:07:27 27° 258° (WSW) 19:11:02 145.90 MHz
SO-67 26 Oct 19:06:36 19:08:59 18° 79° (E) 19:11:20 435.3500 MHz FM
JAS-2 26 Oct 19:13:09 19:17:04 21° 259° (W) 19:21:13 435.800 - 435.900 CW/SSB, 435.910 FM
STRAND 1 26 Oct 19:39:12 19:44:18 74° 283° (WNW) 19:49:24 ?
HO-68 26 Oct 20:48:52 20:54:50 29° 75° (ENE) 21:00:46 435.675 MHz FM
RS-15 26 Oct 20:58:00 21:09:30 85° 111° (ESE) 21:20:30 29.354 - 29.394 USB, Beacon 29.352 USB
Oscar 11 26 Oct 21:27:06 21:28:54 12° 78° (ENE) 21:30:41 145.825 FM, Beacon 2401.500 USB
ISS 26 Oct 21:45:41 21:49:00 83° 235° (SW) 21:52:19 145.800 FM
MaSat-1 26 Oct 22:08:49 22:13:10 52° 107° (ESE) 22:17:21 437.345 MHz
SO-50 26 Oct 22:12:41 22:15:01 13° 67° (ENE) 22:17:21 436.795 FM
ZACube-1 26 Oct 22:19:30 22:23:19 25° 78° (ENE) 22:27:06 437.345 MHz
UKube-1 26 Oct 22:20:38 22:24:59 88° 78° (ENE) 22:29:20 145.840 MHz, 145.915 MHz
HO-68 26 Oct 22:36:07 22:42:12 31° 255° (WSW) 22:48:18 435.675 MHz FM
KITSAT 1 26 Oct 22:36:16 22:44:12 64° 70° (ENE) 22:52:10 435.175 FM
Oscar 11 26 Oct 23:01:09 23:04:49 26° 258° (WSW) 23:08:27 145.825 FM, Beacon 2401.500 USB
FUNcube-1 26 Oct 23:02:54 23:07:32 79° 258° (WSW) 23:12:07 145.950 - 145.970 MHz USB
RS-15 26 Oct 23:17:12 23:21:32 13° 293° (WNW) 23:25:51 29.354 - 29.394 USB, Beacon 29.352 USB
SO-50 26 Oct 23:50:58 23:55:21 34° 248° (WSW) 23:59:43 436.795 FM
ZACube-1 26 Oct 23:56:44 23:59:25 15° 258° (WSW) 00:02:06 437.345 MHz
PANSAT 27 Oct 00:31:20 00:32:03 10° 153° (SSE) 00:32:46 not established
KITSAT 1 27 Oct 00:35:09 00:39:21 15° 249° (WSW) 00:43:34 435.175 FM
UOSAT-12 27 Oct 01:03:39 01:08:13 81° 248° (WSW) 01:12:42 437.025 FM, 437.400 FM
Oscar 16 27 Oct 01:10:31 01:13:06 14° 103° (ESE) 01:15:40 437.025 USB, Beacon 2401.1428
PCSat 27 Oct 01:11:51 01:13:03 11° 110° (ESE) 01:14:14 145.825 MHz
Oscar 19 27 Oct 02:01:02 02:06:04 62° 102° (ESE) 02:11:09 437.125 CW, 437.150 USB
JAS-1B 27 Oct 02:05:09 02:13:19 67° 105° (ESE) 02:22:47 435.800 - 435.900 CW/SSB
PANSAT 27 Oct 02:08:27 02:12:17 64° 150° (SSE) 02:16:06 not established
Gurwin Techsat 1B 27 Oct 02:14:14 02:14:57 10° 103° (ESE) 02:15:40 435.225 FM
AO-27 27 Oct 02:24:23 02:29:08 37° 103° (ESE) 02:33:53 436.795 MHz FM
AO-Echo 27 Oct 02:25:49 02:30:57 54° 102° (ESE) 02:35:59 ?
Sapphire 27 Oct 02:28:33 02:33:57 85° 109° (ESE) 02:39:20 437.095 MHz 1200 baud AX-25 AFSK
Oscar 16 27 Oct 02:47:34 02:52:09 34° 282° (WNW) 02:56:47 437.025 USB, Beacon 2401.1428
PCSat 27 Oct 02:51:03 02:56:13 47° 289° (WNW) 03:01:22 145.825 MHz
Uribyol 2 27 Oct 03:10:35 03:15:38 56° 283° (WNW) 03:20:41 436.500 FM
